Regional Weather Roundup
Issued by NWS

Home | Current Version | Previous Version | Graphics & Text | Print | Product List | Glossary On
Versions: 1 2 3 4 5 6 7 8 9 10 11 12 13 14 15 16 17 18 19 20 21 22 23 24 25 26 27 28 29 30 31 32 33 34 35 36 37 38 39 40 41 42 43 44 45 46 47 48 49 50
000
ASUS43 KLSX 151257
RWRMO

WEATHER SUMMARY FOR MISSOURI
NATIONAL WEATHER SERVICE SPRINGFIELD MO
700 AM CST FRI DEC 15 2017

NOTE: "FAIR" INDICATES FEW OR NO CLOUDS BELOW 12,000 FEET WITH NO
       SIGNIFICANT WEATHER AND/OR OBSTRUCTIONS TO VISIBILITY.
       CURRENT SKY AND/OR WEATHER CONDITIONS ARE NOT AVAILABLE FOR
       CHILLICOTHE AND FARMINGTON.

MOZ001>031-035>038-043-044-053-054-151400-
...NORTHERN AND WESTERN MISSOURI...

CITY           SKY/WX    TMP DP  RH WIND       PRES   REMARKS
KANSAS CTY INT MOCLDY    31  26  82 W5        30.13S WCI  26
LEE`S SUMMIT   MOCLDY    32  29  88 SW5       30.14S WCI  27
ST JOSEPH        N/A     24  19  81 W6        30.13F WCI  17
CHILLICOTHE      N/A     32  23  69 VRB5      30.13R WCI  27

$$
MOZ066>068-077>081-088>096-101>105-151400-
...SOUTHWEST MISSOURI...

CITY           SKY/WX    TMP DP  RH WIND       PRES   REMARKS
SPRINGFIELD    CLOUDY    35  27  72 W7        30.13R WCI  29
JOPLIN         CLEAR     31  30  96 CALM      30.18R
BRANSON        PTCLDY    32  25  74 CALM      30.15R

$$
MOZ032>034-039>042-045>050-055>058-069>072-151400-
...CENTRAL MISSOURI...

CITY           SKY/WX    TMP DP  RH WIND       PRES   REMARKS
COLUMBIA       NOT AVBL
JEFFERSON CITY CLOUDY    30  24  78 CALM      30.13R
ROLLA          CLOUDY    29  24  82 SW7       30.11R WCI  22
SEDALIA        CLOUDY    35  30  82 W9        30.14R WCI  28
WARRENSBURG    PTCLDY    32  28  86 NW3       30.15S

$$
MOZ051-052-059>065-151400-
...EAST CENTRAL MISSOURI...

CITY           SKY/WX    TMP DP  RH WIND       PRES   REMARKS
ST LOUIS INTL  MOCLDY    32  23  69 SW8       30.10S WCI  25

$$
MOZ072>076-082>087-097>100-106>115-151400-
...SOUTH CENTRAL AND SOUTHEAST MISSOURI...

CITY           SKY/WX    TMP DP  RH WIND       PRES   REMARKS
CAPE GIRARDEAU CLOUDY    30  23  75 SW5       30.16R WCI  25
POPLAR BLUFF   CLOUDY    31  27  85 SW5       30.18R WCI  26
WEST PLAINS    CLOUDY    31  24  75 W6        30.14R WCI  25

$$



USA.gov is the U.S. government's official web portal to all federal, state and local government web resources and services.